www.pogodaiklimat.ru
Время
(UTC), дата
12 12.09
15 12.09
18 12.09
21 12.09
00 13.09
03 13.09
06 13.09
09 13.09
12 13.09
15 13.09
21 13.09
00 14.09
03 14.09
06 14.09
09 14.09
12 14.09
15 14.09
18 14.09
21 14.09
00 15.09
03 15.09
06 15.09
09 15.09
12 15.09
15 15.09
18 15.09
21 15.09
00 16.09
03 16.09
06 16.09
09 16.09
12 16.09
15 16.09
18 16.09
21 16.09
00 17.09
03 17.09
06 17.09
09 17.09
12 17.09
15 17.09
18 17.09
03 18.09
06 18.09
09 18.09
12 18.09
15 18.09
18 18.09
21 18.09
00 19.09
03 19.09
06 19.09
09 19.09
Ветер
(напр.,м/с)
Видим. Явления Облачность Т
(С)
Тd
(С)
f
(%)
Тe
(С)
Тes
(С)
Комфортность P
(гПа)
Po
(гПа)
Тmin
(С)
Tmax
(С)
R
(мм)
R24
(мм)
S
(см)
З 4
{12}
10 км {ливн. дождь} 3/3 600 м
[Cu Sc]
+10.5 +1.6 54 +8 +9 холодно 1007.8 995.7
ЮЗ 3 10 км 1/0
[Ac trans]
+6.7 +2.7 76 +4 +4 холодно 1009.2 996.9 +10.6 0.0
З 2 10 км 1/0
[Ac trans]
+4.2 +2.8 91 +1 +1 холодно 1009.8 997.3
З 2 10 км ясно +2.6 +1.7 94 -1 -1 очень
холодно
1010.5 998.0
З 2 10 км ясно +1.4 +0.6 94 -2 -2 холодно 1012.0 999.4
З 2 10 км 4/0
[Ci fib]
+2.4 +1.3 92 -1 0 очень
холодно
1013.1 1000.5 +0.5
З 3 10 км 10/0
[Ac As]
+8.2 +0.6 59 +6 +7 прохладно 1013.1 1000.8
З 3 10 км 9/9 600 м
[Cu Sc]
+10.4 +0.5 50 +9 +9 прохладно 1012.7 1000.4
З 3 10 км 1/1 1000 м
[Cu hum]
+11.3 -1.0 42 +10 +11 прохладно 1012.1 999.9
штиль 0 10 км ясно +3.5 +0.8 82 +3 +3 холодно 1012.4 999.9 +11.6
штиль 0 10 км ясно -0.7 -1.2 96 -2 -2 очень
холодно
1012.2 999.5
штиль 0 10 км 10/0
[Ac trans Ci fib]
+1.7 +1.0 95 0 0 холодно 1011.6 999.0
штиль 0 4000 м слаб. ливневой дождь 10/10 600 м
[Cb cap]
+5.1 +1.8 79 +4 +4 прохладно 1011.2 998.8 -1.1 0.4
В 3 10 км в посл. час ливневой дождь 10/10 1000 м
[Sc]
+5.9 +4.7 92 +3 +3 холодно 1008.7 996.4
В 2 4000 м дымка {ливн. дождь} 10/0
[Ac As]
+7.3 +6.6 95 +5 +7 холодно 1006.9 994.6
СВ 1 4000 м слаб. ливневой дождь 10/10 300 м
[Cb cap]
+9.5 +9.0 97 +9 +9 прохладно 1006.0 993.9
ЮВ 1 200 м туман {ливн. дождь} ?/? +9.8 +9.6 99 +9 +9 по сезону 1005.3 993.2 +10.6 7
штиль 0
{11}
4000 м дымка {ливн. дождь, туман} 10/0
[Ac und]
+10.4 +10.2 99 +10 +10 тепло 1006.1 994.0
штиль 0 2000 м дымка ясно +7.3 +7.1 99 +6 +6 по сезону 1005.6 993.4
Ю 1 10 км туман поземный ясно +7.6 +7.4 99 +7 +7 по сезону 1005.1 992.8
Ю 1 10 км 10/0
[Ci fib]
+11.2 +10.3 94 +11 +12 тепло 1004.7 992.6 +6.8
Ю 2 10 км 8/0
[Ci fib]
+17.6 +10.4 63 +18 +23 тепло 1004.0 992.2
Ю 3 10 км 8/0
[Ac trans Ci fib]
+23.5 +4.9 30 +23 +27 комфорт 1002.5 990.9
ЮЗ 1 10 км 10/6 600 м
[Sc Ac trans Ci fib]
+21.3 +6.4 38 +22 +22 комфорт 1001.8 990.2
штиль 0 10 км 8/3 600 м
[Sc Ac trans]
+14.4 +10.2 76 +14 +14 тепло 1001.4 989.6 +23.5
СВ 1 10 км {ливн. дождь} 8/0
[Ac trans]
+13.0 +11.9 93 +13 +13 тепло 999.9 988.0
В 2 4000 м слаб. ливневой дождь 10/3 600 м
[Cb cap Ac trans]
+12.3 +11.1 92 +11 +11 тепло 998.3 986.4
штиль 0 10 км {ливн. дождь} 8/0
[Ac trans]
+11.5 +10.4 93 +11 +11 тепло 997.1 985.1
З 3 4000 м слаб. ливневой дождь 10/10 240 м
[Cb cap]
+11.9 +11.2 95 +10 +10 тепло 997.2 985.2 +11.0 2
З 3 10 км {ливн. дождь} 8/8 600 м
[Cu med, cong]
+12.8 +7.2 69 +12 +12 тепло 998.0 986.1
ЮЗ 4 10 км 8/5 600 м
[Cu med, cong Ci fib]
+13.4 +2.6 48 +12 +14 тепло 998.2 986.3
ЮЗ 4 10 км 8/4 600 м
[Cu med, cong]
+11.0 +1.0 50 +9 +9 по сезону 998.9 986.9
З 3
{11}
4000 м слаб. ливневой дождь 8/6 600 м
[Cb cap Ac trans]
+8.2 +2.9 69 +6 +6 по сезону 999.1 987.0 +14.1 0.3
ЮЗ 2 10 км {ливн. дождь} 6/0
[Ci fib]
+4.7 +2.7 87 +2 +2 прохладно 998.7 986.4
ЮЗ 1 10 км 8/0 +3.5 +2.7 94 +2 +2 прохладно 997.9 985.6
Ю 1 10 км 10/0 +3.3 +2.6 95 +2 +2 по сезону 997.1 984.8
З 2 10 км 10/10 300 м
[St]
+5.0 +3.9 93 +2 +2 прохладно 996.8 984.5 +3.1 0.0
З 3 4000 м слаб. морось 10/10 300 м +5.9 +2.9 81 +3 +3 прохладно 996.7 984.5
СЗ 4 4000 м слаб. дождь {морось} 10/10 300 м
[Frnb Ns]
+6.0 +4.6 91 +2 +2 холодно 997.6 985.4
З 5-10
{11}
10 км {дождь, морось} 10/5 300 м
[Sc As op]
+6.8 +3.6 80 +3 +3 холодно 1000.1 987.9
СЗ 4
{10}
10 км 10/10 600 м
[Sc]
+5.6 +3.6 87 +2 +2 холодно 1002.6 990.3 +7.1 2
З 2 10 км 1/0
[Ac trans]
+4.8 +2.6 86 +2 +2 прохладно 1003.6 991.3
ЮЗ 3 10 км 9/6 1000 м
[Sc Ac trans]
+2.9 +1.3 89 -1 -1 холодно 1005.2 992.7 +1.5
З 4 10 км 8/0
[Ac trans Ci fib]
+8.6 +1.9 63 +6 +8 по сезону 1004.8 992.6
ЮЗ 4 10 км 8/3 1000 м
[Cu med, cong Ac trans]
+10.0 -0.4 48 +8 +9 по сезону 1004.4 992.3
ЮЗ 3 10 км 8/8 600 м
[Sc diur, vesp Ac trans]
+9.4 -1.6 46 +8 +8 по сезону 1004.3 992.2
ЮЗ 1 10 км 6/3 600 м
[Sc Ac trans]
+6.3 +0.3 65 +6 +6 по сезону 1004.2 991.9 +10.6
З 2 10 км 8/0
[Ac trans Ci fib]
+3.2 -0.5 77 0 0 прохладно 1003.8 991.4
З 2 10 км ясно +0.7 -1.2 87 -3 -3 холодно 1003.5 991.0
ЮЗ 3 10 км 8/0
[Ac trans]
+1.4 -0.1 90 -3 -3 прохладно 1003.5 991.0
З 3 4000 м слаб. морось 10/10 300 м
[St]
+2.5 +1.4 92 -2 -2 холодно 1003.6 991.1 +0.2 0.0
З 4-10
{10}
4000 м слаб. ливневой дождь {морось} 10/10 480 м
[Cb cap]
+3.7 +1.8 87 -1 -1 холодно 1004.6 992.2
З 4
{10}
4000 м слаб. ливневой дождь 10/10 500 м
[Cb cap]
+3.5 +1.5 87 -1 -1 холодно 1006.2 993.8
Местоположение метеостанции Тюмень (Тюменская область, Россия): широта 57.12 долгота 65.43 высота над уровнем моря 102 м.
В архиве по умолчанию представлена погода в Тюмени за последнюю неделю. Архивные данные за месяц целиком и за предыдущие месяцы, начиная с января 2011 года, Вы можете получить, выбрав интересующий диапазон дат из раскрывающегося списка и нажав кнопку "Найти!".
*Определитесь, кто Вы:
Внимание! Время в таблицах - всемирное. Для получения местного времени необходимо прибавить поправку, которая равна 5 ч.
Смотрите также архив погоды в соседних городах и на ближайших метеорологических станциях:
Партнеры нашего сайта:      
Пояснения к столбцам:
  • Ветер - указаны скорость ветра в м/с - средняя за 10 мин, порывы в срок и между сроками (в фигурных скобках) и направление, откуда дует ветер: С - северный,
  • СВ - северо-восточный, В - восточный, ЮВ - юго-восточный, Ю - южный, ЮЗ - юго-западный, З - западный, СЗ - северо-западный.
  • Видимость - горизонтальная дальность видимости в метрах или километрах. При видимости от 1 до 10 км при отсутствии осадков обычно наблюдается дымка, при ухудшении видимости до 1 км и менее - туман. В сухую погоду видимость может ухудшаться дымом, пылью или мглою.
  • Явления - указаны атмосферные явления, наблюдавшиеся в срок или в последний час перед сроком; фигурными скобками обозначены явления, наблюдавшиеся между сроками (за 1-3 часа до срока); квадратными скобками обозначены град или гололедные отложения с указанием их диаметра в мм.
  • Облачность - указаны через наклонную черту общая и нижняя облачность в баллах и высота нижней границы облаков в метрах; квадратными скобками обозначены формы облаков: Ci - перистые, Cs - перисто-слоистые, Cc - перисто-кучевые, Ac - высококучевые, As - высокослоистые, Sc - слоисто-кучевые, Ns - слоисто-дождевые, Cu - кучевые, Cb - кучево-дождевые. Подробнее классификацию облаков см. в Атласе облаков (PDF).
  • T - Температура воздуха - температура, измеренная на высоте 2 м над землей.
  • Td - Температура точки росы - температура, при понижении до которой содержащийся в воздухе водяной пар достигнет насыщения.
  • f - Относительная влажность воздуха - влажноcть воздуха, измеренная на высоте 2 м над землей.
  • Te - Эффективная температура - температура, которую ощущает одетый по сезону человек в тени. Характеристика душности погоды. При расчете учитывается влияние влажности воздуха и скорости ветра на теплоощущения человека.
  • Tes - Эффективная температура на солнце - температура, которую ощущает человек, с поправкой на солнечный нагрев. Характеристика знойности погоды. Зависит от высоты солнца над горизонтом, облачности и скорости ветра. Ночью, в пасмурную погоду, а также при ветре 12 м/с и более поправка равна нулю.
  • P - Атмосферное давление - приведенное к уровню моря атмосферное давление.
  • Po - Атмосферное давление - измеренное на уровне метеостанции атмосферное давление.
  • Tmin - Минимальная температура - минимум температуры воздуха на высоте 2 м над землей.
  • Tmax - Максимальная температура - максимум температуры воздуха на высоте 2 м над землей.
  • R - Количество осадков - Количество выпавших осадков за период времени, мм. При наведении курсора мыши на число - период времени, за который выпало указанное количество осадков.
  • R24 - Количество осадков - Количество выпавших осадков за 24 часа, мм.
  • S - Снежный покров - Высота снежного покрова, см. При наведении курсора мыши на число - состояние снежного покрова и степень покрытия местности в баллах.